Location: ??????
(55.2000°N, 38.3000°E)
Time: 07:47:45
(UTC+00:00)

Cosmos 1378 Rocket - Pass Details

Date: 15 November 2025
Orbit: 595 x 618 km, 82.5° (Epoch: 14 December)

Event Time Altitude Azimuth Distance (km) Brightness Sun altitude
Rises 02:58:48 0° 188° (S) 2,829 7.0 -16.9°
Reaches altitude 10° 03:00:59 10° 188° (S) 1,931 6.1 -16.6°
Maximum altitude 03:05:16 84° 102° (ESE) 608 3.5 -16.0°
Drops below altitude 10° 03:09:35 10° 13° (NNE) 1,950 6.1 -15.4°
Sets 03:11:48 0° 13° (NNE) 2,860 7.0 -15.1°
